QPF
0.00 0.01 0.02 0.02 0.03 0.04 0.05 0.04 0.05 0.04 0.03 0.03 0.03 0.03 0.02 0.02 0.03 0.02 0.02 0.02 0.02 0.03 0.01 0.01 0.02 0.03 0.02 0.02 0.01 0.01 0.01 0.01 0.00 0.01 0.01 0.01 0.01 0.01 0.01 0.00 0.00 0.01 0.01
0.01 0.02 0.02 0.03 0.04 0.05 0.05 0.04 0.04 0.05 0.05 0.03 0.04 0.03 0.02 0.02 0.02 0.02 0.03 0.03 0.03 0.03 0.02 0.01 0.02 0.03 0.02 0.02 0.01 0.01 0.01 0.01 0.00 0.00 0.01 0.01 0.01 0.01 0.01 0.01 0.01 0.01 0.01
0.01 0.03 0.03 0.03 0.03 0.04 0.04 0.03 0.03 0.04 0.05 0.04 0.04 0.03 0.03 0.02 0.02 0.02 0.03 0.04 0.03 0.03 0.02 0.02 0.02 0.03 0.03 0.02 0.01 0.01 0.01 0.01 0.00 0.00 0.01 0.01 0.00 0.01 0.01 0.01 0.01 0.01 0.01
0.02 0.04 0.06 0.05 0.04 0.04 0.04 0.03 0.03 0.03 0.05 0.05 0.04 0.03 0.02 0.03 0.02 0.02 0.03 0.04 0.03 0.03 0.03 0.03 0.03 0.03 0.03 0.02 0.02 0.01 0.01 0.01 0.01 0.00 0.01 0.01 0.00 0.01 0.01 0.01 0.01 0.01 0.01
0.02 0.03 0.07 0.06 0.05 0.05 0.04 0.04 0.03 0.03 0.04 0.04 0.04 0.03 0.02 0.02 0.02 0.02 0.03 0.04 0.04 0.03 0.04 0.04 0.04 0.03 0.03 0.02 0.02 0.02 0.01 0.01 0.01 0.00 0.00 0.01 0.01 0.01 0.01 0.01 0.01 0.01 0.01
0.01 0.02 0.03 0.04 0.05 0.05 0.04 0.03 0.03 0.03 0.03 0.04 0.03 0.03 0.02 0.01 0.02 0.02 0.02 0.03 0.03 0.04 0.04 0.04 0.04 0.03 0.02 0.02 0.02 0.02 0.02 0.01 0.01 0.00 0.00 0.00 0.01 0.01 0.01 0.01 0.01 0.01 0.01
0.02 0.02 0.02 0.04 0.04 0.04 0.04 0.04 0.03 0.03 0.03 0.03 0.03 0.03 0.02 0.01 0.02 0.02 0.01 0.02 0.02 0.03 0.05 0.05 0.04 0.04 0.04 0.03 0.04 0.03 0.03 0.04 0.02 0.01 0.00 0.00 0.00 0.01 0.02 0.02 0.02 0.02 0.02
0.05 0.05 0.05 0.07 0.06 0.05 0.04 0.04 0.03 0.02 0.03 0.04 0.04 0.03 0.03 0.01 0.01 0.01 0.01 0.02 0.02 0.03 0.04 0.04 0.04 0.04 0.05 0.04 0.03 0.04 0.03 0.03 0.03 0.02 0.00 0.00 0.00 0.01 0.01 0.02 0.02 0.02 0.02
0.05 0.06 0.07 0.08 0.08 0.07 0.07 0.07 0.05 0.03 0.03 0.04 0.04 0.04 0.03 0.02 0.01 0.01 0.02 0.02 0.02 0.02 0.03 0.04 0.04 0.04 0.04 0.04 0.02 0.01 0.01 0.01 0.01 0.01 0.00 0.00 0.00 0.00 0.01 0.01 0.02 0.04 0.03
0.05 0.06 0.07 0.07 0.08 0.09 0.14 0.14 0.09 0.06 0.04 0.04 0.05 0.05 0.05 0.03 0.01 0.01 0.01 0.02 0.02 0.03 0.03 0.04 0.05 0.06 0.05 0.04 0.03 0.02 0.01 0.01 0.00 0.00 0.00 0.00 0.00 0.01 0.01 0.01 0.01 0.02 0.03
0.06 0.07 0.07 0.07 0.08 0.13 0.20 0.16 0.12 0.08 0.06 0.04 0.04 0.05 0.05 0.04 0.02 0.01 0.00 0.01 0.02 0.02 0.03 0.04 0.05 0.05 0.04 0.03 0.02 0.01 0.01 0.00 0.00 0.00 0.00 0.00 0.00 0.01 0.00 0.01 0.01 0.01 0.01
0.07 0.08 0.07 0.07 0.08 0.12 0.13 0.10 0.10 0.09 0.06 0.04 0.04 0.04 0.04 0.04 0.02 0.01 0.00 0.01 0.02 0.02 0.02 0.03 0.04 0.04 0.03 0.03 0.02 0.01 0.01 0.00 0.00 0.00 0.00 0.00 0.00 0.01 0.01 0.01 0.01 0.01 0.01
0.06 0.06 0.06 0.06 0.07 0.07 0.07 0.08 0.10 0.09 0.07 0.06 0.05 0.04 0.04 0.04 0.02 0.02 0.01 0.01 0.02 0.02 0.03 0.04 0.03 0.02 0.02 0.03 0.03 0.02 0.01 0.01 0.01 0.00 0.00 0.00 0.00 0.01 0.01 0.01 0.01 0.01 0.01
0.05 0.06 0.05 0.05 0.04 0.04 0.04 0.05 0.09 0.10 0.09 0.08 0.06 0.04 0.04 0.03 0.02 0.02 0.01 0.02 0.02 0.02 0.03 0.04 0.03 0.02 0.01 0.02 0.03 0.02 0.02 0.01 0.01 0.00 0.00 0.00 0.00 0.01 0.01 0.01 0.01 0.01 0.01
0.04 0.04 0.06 0.06 0.05 0.04 0.03 0.04 0.07 0.09 0.10 0.09 0.08 0.06 0.04 0.03 0.02 0.02 0.02 0.02 0.02 0.02 0.02 0.03 0.03 0.04 0.04 0.03 0.02 0.02 0.02 0.02 0.01 0.00 0.00 0.00 0.00 0.00 0.00 0.01 0.01 0.01 0.01
0.03 0.03 0.04 0.04 0.03 0.03 0.03 0.04 0.06 0.07 0.08 0.09 0.10 0.07 0.06 0.04 0.02 0.02 0.02 0.02 0.02 0.02 0.02 0.02 0.02 0.03 0.03 0.03 0.02 0.02 0.02 0.01 0.01 0.01 0.00 0.00 0.00 0.00 0.00 0.01 0.01 0.02 0.01
0.02 0.02 0.03 0.03 0.02 0.01 0.02 0.03 0.05 0.06 0.06 0.07 0.08 0.07 0.07 0.05 0.03 0.03 0.03 0.03 0.04 0.03 0.02 0.02 0.02 0.02 0.02 0.02 0.02 0.02 0.01 0.01 0.01 0.01 0.01 0.00 0.00 0.00 0.00 0.01 0.01 0.02 0.02
0.02 0.02 0.02 0.03 0.02 0.02 0.02 0.03 0.05 0.05 0.05 0.06 0.07 0.06 0.06 0.05 0.03 0.03 0.03 0.04 0.04 0.04 0.03 0.02 0.01 0.01 0.01 0.02 0.02 0.02 0.02 0.01 0.01 0.01 0.00 0.00 0.01 0.00 0.00 0.00 0.01 0.01 0.02
0.03 0.02 0.03 0.03 0.02 0.02 0.03 0.04 0.04 0.05 0.05 0.06 0.07 0.06 0.05 0.03 0.02 0.02 0.03 0.03 0.04 0.05 0.05 0.03 0.02 0.01 0.01 0.01 0.01 0.01 0.02 0.01 0.01 0.01 0.01 0.00 0.00 0.01 0.01 0.01 0.01 0.01 0.01
0.05 0.04 0.04 0.03 0.03 0.02 0.03 0.04 0.04 0.04 0.05 0.05 0.07 0.07 0.06 0.04 0.02 0.03 0.03 0.02 0.02 0.03 0.05 0.05 0.04 0.03 0.03 0.02 0.02 0.02 0.01 0.01 0.01 0.01 0.01 0.01 0.00 0.01 0.01 0.02 0.02 0.02 0.03
0.07 0.06 0.05 0.04 0.03 0.03 0.03 0.03 0.03 0.04 0.04 0.05 0.06 0.06 0.05 0.05 0.04 0.03 0.03 0.03 0.03 0.03 0.04 0.04 0.04 0.04 0.04 0.04 0.04 0.03 0.02 0.01 0.01 0.01 0.01 0.01 0.01 0.00 0.00 0.01 0.01 0.02 0.02
0.08 0.06 0.06 0.04 0.04 0.03 0.04 0.04 0.04 0.04 0.04 0.05 0.06 0.07 0.05 0.04 0.04 0.04 0.03 0.03 0.03 0.04 0.04 0.04 0.04 0.04 0.04 0.05 0.05 0.06 0.05 0.03 0.02 0.01 0.01 0.01 0.01 0.01 0.00 0.01 0.01 0.00 0.00
0.07 0.05 0.05 0.05 0.03 0.04 0.06 0.07 0.05 0.04 0.04 0.05 0.05 0.08 0.05 0.03 0.03 0.03 0.04 0.04 0.04 0.03 0.03 0.03 0.04 0.05 0.05 0.04 0.05 0.05 0.05 0.04 0.03 0.02 0.02 0.03 0.03 0.02 0.01 0.01 0.01 0.00 0.00
0.07 0.05 0.04 0.04 0.03 0.04 0.06 0.07 0.09 0.08 0.07 0.07 0.07 0.09 0.08 0.05 0.04 0.04 0.05 0.05 0.04 0.03 0.03 0.03 0.03 0.04 0.05 0.06 0.07 0.07 0.07 0.05 0.05 0.04 0.03 0.03 0.03 0.04 0.03 0.02 0.01 0.01 0.01
0.07 0.05 0.04 0.04 0.04 0.05 0.05 0.05 0.05 0.06 0.06 0.08 0.08 0.08 0.08 0.06 0.04 0.03 0.05 0.06 0.06 0.04 0.03 0.02 0.02 0.03 0.04 0.04 0.05 0.06 0.07 0.07 0.07 0.06 0.04 0.04 0.04 0.03 0.03 0.02 0.02 0.01 0.01
0.06 0.04 0.03 0.03 0.04 0.05 0.05 0.05 0.05 0.04 0.04 0.05 0.07 0.06 0.07 0.06 0.04 0.03 0.03 0.04 0.05 0.04 0.03 0.03 0.02 0.02 0.03 0.03 0.03 0.03 0.04 0.05 0.06 0.06 0.06 0.05 0.04 0.04 0.03 0.03 0.02 0.02 0.02
MSLP
1011.11 1011.42 1011.76 1012.09 1012.41 1012.69 1012.89 1013.02 1013.04 1012.97 1012.83 1012.63 1012.40 1012.17 1011.97 1011.79 1011.64 1011.53 1011.44 1011.37 1011.32 1011.29 1011.30 1011.35 1011.45 1011.60 1011.80 1012.03 1012.27 1012.52 1012.75 1012.96 1013.15 1013.32 1013.48 1013.63 1013.78 1013.93 1014.09 1014.25 1014.40 1014.54 1014.66
1011.18 1011.49 1011.81 1012.14 1012.46 1012.74 1012.97 1013.12 1013.18 1013.15 1013.03 1012.86 1012.65 1012.43 1012.23 1012.05 1011.90 1011.77 1011.66 1011.56 1011.47 1011.40 1011.36 1011.36 1011.41 1011.52 1011.69 1011.91 1012.15 1012.40 1012.66 1012.89 1013.11 1013.31 1013.49 1013.67 1013.85 1014.03 1014.22 1014.41 1014.59 1014.75 1014.89
1011.33 1011.63 1011.94 1012.25 1012.56 1012.85 1013.09 1013.26 1013.35 1013.35 1013.26 1013.12 1012.93 1012.74 1012.54 1012.37 1012.22 1012.08 1011.95 1011.82 1011.70 1011.58 1011.48 1011.42 1011.42 1011.48 1011.60 1011.78 1012.00 1012.25 1012.50 1012.75 1012.99 1013.21 1013.42 1013.63 1013.85 1014.06 1014.28 1014.50 1014.70 1014.89 1015.05
1011.56 1011.85 1012.14 1012.43 1012.73 1013.00 1013.25 1013.43 1013.54 1013.57 1013.52 1013.41 1013.25 1013.08 1012.91 1012.74 1012.59 1012.45 1012.30 1012.15 1011.98 1011.82 1011.68 1011.56 1011.49 1011.49 1011.55 1011.68 1011.86 1012.08 1012.32 1012.56 1012.81 1013.05 1013.29 1013.53 1013.77 1014.02 1014.27 1014.52 1014.75 1014.96 1015.14
1011.84 1012.12 1012.40 1012.67 1012.94 1013.21 1013.44 1013.63 1013.76 1013.81 1013.79 1013.71 1013.59 1013.44 1013.29 1013.14 1012.99 1012.84 1012.68 1012.51 1012.32 1012.13 1011.94 1011.77 1011.65 1011.58 1011.58 1011.64 1011.77 1011.94 1012.14 1012.37 1012.61 1012.85 1013.11 1013.38 1013.65 1013.93 1014.21 1014.49 1014.76 1014.99 1015.20
1012.12 1012.40 1012.67 1012.93 1013.18 1013.43 1013.66 1013.84 1013.98 1014.05 1014.06 1014.01 1013.92 1013.80 1013.66 1013.53 1013.38 1013.23 1013.07 1012.89 1012.69 1012.48 1012.26 1012.06 1011.89 1011.77 1011.70 1011.69 1011.74 1011.84 1012.00 1012.18 1012.41 1012.65 1012.92 1013.21 1013.51 1013.82 1014.14 1014.45 1014.74 1015.00 1015.22
1012.35 1012.63 1012.90 1013.15 1013.39 1013.63 1013.85 1014.04 1014.19 1014.28 1014.31 1014.29 1014.22 1014.12 1014.01 1013.88 1013.74 1013.59 1013.43 1013.26 1013.06 1012.84 1012.62 1012.40 1012.20 1012.02 1011.89 1011.81 1011.78 1011.81 1011.90 1012.04 1012.23 1012.47 1012.74 1013.05 1013.38 1013.72 1014.06 1014.40 1014.71 1014.99 1015.23
1012.49 1012.78 1013.05 1013.30 1013.55 1013.78 1014.01 1014.20 1014.36 1014.46 1014.52 1014.52 1014.47 1014.39 1014.29 1014.17 1014.04 1013.90 1013.74 1013.57 1013.39 1013.19 1012.98 1012.75 1012.54 1012.32 1012.14 1011.98 1011.88 1011.83 1011.84 1011.93 1012.08 1012.30 1012.58 1012.91 1013.26 1013.63 1014.00 1014.35 1014.68 1014.98 1015.24
1012.51 1012.81 1013.09 1013.36 1013.62 1013.87 1014.10 1014.30 1014.47 1014.60 1014.67 1014.69 1014.67 1014.61 1014.51 1014.39 1014.26 1014.12 1013.98 1013.82 1013.66 1013.48 1013.29 1013.08 1012.86 1012.62 1012.39 1012.17 1011.99 1011.86 1011.80 1011.83 1011.94 1012.15 1012.43 1012.77 1013.15 1013.54 1013.93 1014.30 1014.65 1014.95 1015.22
1012.43 1012.74 1013.05 1013.34 1013.62 1013.89 1014.14 1014.36 1014.54 1014.68 1014.77 1014.81 1014.81 1014.75 1014.66 1014.55 1014.42 1014.28 1014.13 1013.99 1013.85 1013.70 1013.54 1013.34 1013.13 1012.88 1012.61 1012.34 1012.08 1011.88 1011.75 1011.72 1011.80 1011.99 1012.27 1012.62 1013.02 1013.43 1013.84 1014.23 1014.58 1014.89 1015.17
1012.26 1012.60 1012.93 1013.26 1013.58 1013.87 1014.14 1014.37 1014.57 1014.72 1014.83 1014.89 1014.89 1014.85 1014.76 1014.64 1014.51 1014.36 1014.22 1014.09 1013.97 1013.84 1013.70 1013.53 1013.32 1013.07 1012.77 1012.45 1012.14 1011.87 1011.68 1011.60 1011.64 1011.81 1012.09 1012.45 1012.86 1013.29 1013.71 1014.10 1014.46 1014.77 1015.06
1012.01 1012.39 1012.77 1013.15 1013.50 1013.82 1014.11 1014.37 1014.57 1014.74 1014.86 1014.92 1014.94 1014.90 1014.82 1014.70 1014.55 1014.41 1014.26 1014.13 1014.02 1013.91 1013.79 1013.64 1013.44 1013.18 1012.87 1012.52 1012.16 1011.84 1011.59 1011.46 1011.46 1011.61 1011.88 1012.25 1012.66 1013.10 1013.53 1013.92 1014.28 1014.60 1014.89
1011.70 1012.13 1012.57 1013.00 1013.41 1013.77 1014.08 1014.35 1014.57 1014.74 1014.87 1014.94 1014.96 1014.93 1014.85 1014.73 1014.58 1014.42 1014.27 1014.14 1014.03 1013.93 1013.83 1013.69 1013.50 1013.24 1012.91 1012.53 1012.14 1011.78 1011.49 1011.32 1011.29 1011.41 1011.67 1012.03 1012.44 1012.88 1013.31 1013.70 1014.05 1014.37 1014.68
1011.29 1011.80 1012.31 1012.82 1013.28 1013.69 1014.03 1014.32 1014.55 1014.74 1014.87 1014.95 1014.98 1014.95 1014.88 1014.75 1014.60 1014.44 1014.28 1014.14 1014.03 1013.93 1013.82 1013.69 1013.50 1013.24 1012.91 1012.52 1012.10 1011.71 1011.39 1011.18 1011.13 1011.23 1011.46 1011.81 1012.22 1012.65 1013.07 1013.46 1013.80 1014.13 1014.44
1010.77 1011.36 1011.96 1012.55 1013.09 1013.56 1013.95 1014.27 1014.52 1014.72 1014.86 1014.95 1014.99 1014.98 1014.91 1014.79 1014.64 1014.47 1014.30 1014.15 1014.02 1013.91 1013.80 1013.67 1013.48 1013.22 1012.88 1012.48 1012.06 1011.65 1011.31 1011.08 1010.99 1011.07 1011.29 1011.61 1012.01 1012.42 1012.83 1013.21 1013.56 1013.89 1014.21
1010.10 1010.78 1011.48 1012.16 1012.79 1013.33 1013.79 1014.16 1014.45 1014.67 1014.84 1014.95 1015.00 1015.00 1014.95 1014.84 1014.69 1014.52 1014.35 1014.18 1014.04 1013.91 1013.78 1013.63 1013.44 1013.17 1012.83 1012.44 1012.01 1011.59 1011.24 1011.00 1010.89 1010.94 1011.14 1011.44 1011.81 1012.22 1012.62 1012.99 1013.34 1013.67 1014.01
1009.28 1010.04 1010.84 1011.62 1012.35 1012.99 1013.53 1013.97 1014.32 1014.59 1014.79 1014.93 1015.01 1015.03 1015.00 1014.90 1014.77 1014.60 1014.41 1014.23 1014.07 1013.92 1013.76 1013.59 1013.38 1013.11 1012.77 1012.37 1011.95 1011.54 1011.18 1010.93 1010.80 1010.83 1011.00 1011.27 1011.62 1012.01 1012.40 1012.78 1013.14 1013.49 1013.83
1008.37 1009.19 1010.07 1010.95 1011.78 1012.52 1013.16 1013.69 1014.12 1014.45 1014.70 1014.88 1015.00 1015.05 1015.04 1014.96 1014.84 1014.68 1014.49 1014.30 1014.12 1013.93 1013.75 1013.55 1013.31 1013.02 1012.68 1012.28 1011.86 1011.46 1011.10 1010.84 1010.70 1010.70 1010.84 1011.08 1011.41 1011.78 1012.17 1012.55 1012.93 1013.30 1013.67
1007.45 1008.29 1009.22 1010.17 1011.10 1011.95 1012.70 1013.33 1013.85 1014.26 1014.58 1014.80 1014.96 1015.04 1015.06 1015.01 1014.91 1014.76 1014.58 1014.38 1014.17 1013.96 1013.74 1013.51 1013.24 1012.93 1012.57 1012.17 1011.75 1011.34 1010.99 1010.72 1010.56 1010.53 1010.63 1010.85 1011.14 1011.50 1011.88 1012.27 1012.66 1013.06 1013.47
1006.63 1007.46 1008.39 1009.39 1010.39 1011.33 1012.19 1012.92 1013.54 1014.03 1014.41 1014.69 1014.88 1015.00 1015.04 1015.02 1014.95 1014.82 1014.65 1014.46 1014.24 1014.00 1013.75 1013.47 1013.17 1012.83 1012.45 1012.04 1011.62 1011.21 1010.84 1010.56 1010.37 1010.31 1010.37 1010.54 1010.80 1011.13 1011.50 1011.90 1012.31 1012.74 1013.19
1006.03 1006.79 1007.70 1008.71 1009.74 1010.75 1011.69 1012.51 1013.21 1013.77 1014.20 1014.52 1014.75 1014.90 1014.98 1015.00 1014.95 1014.86 1014.71 1014.53 1014.30 1014.05 1013.77 1013.46 1013.11 1012.74 1012.33 1011.91 1011.48 1011.06 1010.69 1010.38 1010.17 1010.06 1010.07 1010.19 1010.40 1010.68 1011.03 1011.43 1011.86 1012.33 1012.82
1005.73 1006.39 1007.24 1008.21 1009.25 1010.29 1011.27 1012.15 1012.90 1013.50 1013.97 1014.33 1014.58 1014.75 1014.86 1014.92 1014.92 1014.86 1014.75 1014.59 1014.38 1014.11 1013.81 1013.47 1013.09 1012.68 1012.26 1011.81 1011.37 1010.95 1010.57 1010.24 1009.99 1009.83 1009.78 1009.82 1009.97 1010.20 1010.51 1010.89 1011.32 1011.81 1012.34
1005.75 1006.31 1007.06 1007.98 1008.98 1010.01 1010.99 1011.88 1012.65 1013.26 1013.74 1014.10 1014.37 1014.56 1014.70 1014.79 1014.83 1014.83 1014.76 1014.63 1014.44 1014.18 1013.87 1013.50 1013.10 1012.67 1012.23 1011.78 1011.33 1010.91 1010.52 1010.17 1009.89 1009.68 1009.56 1009.52 1009.58 1009.74 1009.99 1010.32 1010.74 1011.23 1011.78
1006.06 1006.51 1007.18 1008.01 1008.95 1009.93 1010.88 1011.74 1012.48 1013.07 1013.54 1013.88 1014.14 1014.34 1014.50 1014.62 1014.71 1014.76 1014.74 1014.66 1014.49 1014.25 1013.93 1013.56 1013.14 1012.70 1012.25 1011.80 1011.37 1010.96 1010.58 1010.22 1009.92 1009.66 1009.47 1009.35 1009.32 1009.38 1009.55 1009.81 1010.18 1010.65 1011.21
1006.54 1006.92 1007.51 1008.26 1009.12 1010.03 1010.92 1011.72 1012.40 1012.95 1013.37 1013.68 1013.92 1014.12 1014.29 1014.45 1014.58 1014.67 1014.70 1014.65 1014.51 1014.28 1013.97 1013.59 1013.17 1012.74 1012.30 1011.88 1011.48 1011.10 1010.74 1010.40 1010.09 1009.80 1009.54 1009.34 1009.21 1009.17 1009.24 1009.42 1009.72 1010.14 1010.68
1007.07 1007.43 1007.96 1008.65 1009.44 1010.27 1011.08 1011.80 1012.41 1012.90 1013.26 1013.53 1013.75 1013.94 1014.11 1014.28 1014.44 1014.57 1014.63 1014.60 1014.48 1014.26 1013.95 1013.58 1013.17 1012.74 1012.34 1011.96 1011.61 1011.29 1010.98 1010.67 1010.37 1010.06 1009.76 1009.49 1009.26 1009.12 1009.08 1009.16 1009.38 1009.74 1010.23
Thickness
5732 5732 5729 5729 5729 5729 5729 5729 5729 5729 5728 5728 5727 5727 5727 5726 5726 5726 5725 5725 5725 5724 5724 5723 5723 5722 5721 5720 5719 5718 5717 5717 5716 5715 5715 5714 5714 5713 5713 5712 5713 5713 5711
5729 5728 5726 5726 5726 5726 5726 5725 5725 5725 5724 5724 5724 5723 5723 5723 5723 5722 5722 5722 5722 5721 5721 5721 5720 5719 5718 5717 5716 5715 5714 5713 5712 5711 5711 5711 5710 5710 5709 5709 5709 5709 5707
5724 5724 5722 5722 5722 5722 5722 5722 5721 5721 5721 5721 5720 5720 5720 5720 5720 5719 5719 5719 5718 5718 5717 5717 5716 5716 5714 5713 5712 5711 5710 5709 5708 5708 5708 5709 5707 5706 5706 5705 5705 5704 5703
5719 5719 5718 5717 5718 5718 5718 5718 5717 5718 5718 5717 5717 5717 5716 5716 5716 5716 5715 5715 5715 5714 5713 5713 5712 5712 5711 5709 5708 5707 5706 5705 5704 5704 5706 5706 5705 5702 5702 5701 5701 5700 5699
5713 5714 5713 5712 5712 5713 5713 5713 5713 5713 5713 5713 5713 5712 5712 5712 5712 5712 5711 5711 5711 5710 5710 5709 5708 5707 5706 5705 5704 5703 5702 5701 5700 5701 5702 5701 5700 5698 5698 5697 5697 5696 5695
5707 5708 5707 5706 5707 5708 5708 5708 5709 5709 5709 5709 5709 5708 5708 5708 5708 5707 5707 5707 5707 5706 5705 5704 5703 5702 5701 5700 5699 5698 5698 5697 5697 5698 5698 5697 5696 5694 5693 5693 5692 5691 5691
5701 5702 5701 5700 5701 5702 5702 5702 5703 5703 5704 5704 5704 5704 5703 5703 5703 5702 5702 5702 5702 5701 5700 5700 5699 5698 5696 5695 5694 5693 5693 5692 5694 5694 5693 5692 5690 5689 5689 5688 5688 5687 5686
5693 5694 5695 5694 5695 5696 5696 5697 5697 5698 5698 5698 5698 5698 5698 5697 5698 5697 5697 5697 5697 5696 5696 5695 5694 5693 5692 5690 5689 5688 5688 5687 5688 5689 5688 5687 5685 5684 5684 5683 5683 5682 5681
5685 5687 5688 5688 5689 5689 5690 5690 5691 5691 5692 5692 5692 5692 5692 5692 5692 5691 5691 5691 5691 5691 5691 5690 5689 5688 5687 5685 5684 5683 5682 5682 5684 5683 5683 5682 5679 5679 5679 5678 5678 5677 5676
5677 5679 5680 5682 5683 5683 5683 5684 5684 5685 5685 5685 5686 5686 5686 5686 5685 5685 5685 5685 5685 5685 5685 5684 5683 5682 5681 5680 5679 5677 5677 5677 5679 5678 5678 5676 5674 5674 5674 5673 5672 5671 5670
5669 5670 5672 5674 5675 5676 5677 5677 5677 5677 5678 5678 5679 5679 5679 5680 5680 5679 5679 5679 5679 5679 5679 5678 5677 5676 5676 5674 5673 5672 5672 5674 5674 5673 5671 5670 5669 5669 5668 5667 5667 5666 5665
5660 5662 5664 5666 5668 5669 5670 5670 5670 5671 5671 5672 5673 5673 5674 5674 5674 5674 5672 5672 5672 5672 5672 5671 5671 5670 5670 5670 5668 5667 5668 5668 5668 5667 5665 5663 5663 5663 5662 5662 5661 5660 5660
5652 5653 5655 5658 5659 5661 5662 5664 5664 5664 5664 5666 5666 5667 5668 5668 5667 5667 5666 5665 5665 5665 5665 5664 5664 5665 5664 5664 5663 5662 5662 5662 5662 5661 5659 5657 5657 5657 5656 5656 5655 5655 5654
5643 5644 5646 5649 5651 5652 5654 5655 5656 5657 5658 5659 5659 5660 5661 5661 5660 5660 5659 5659 5659 5658 5658 5658 5658 5658 5658 5657 5657 5656 5656 5655 5655 5654 5653 5651 5650 5650 5650 5650 5649 5648 5647
5635 5636 5638 5641 5643 5644 5645 5647 5649 5650 5651 5652 5652 5653 5654 5654 5653 5653 5652 5652 5651 5650 5650 5650 5650 5651 5651 5650 5650 5650 5649 5649 5648 5647 5646 5644 5643 5643 5643 5643 5643 5642 5641
5627 5629 5630 5632 5635 5636 5637 5639 5641 5642 5643 5644 5644 5645 5645 5646 5645 5645 5644 5644 5643 5642 5642 5642 5642 5642 5643 5642 5642 5642 5642 5642 5641 5640 5639 5638 5636 5636 5636 5636 5635 5635 5634
5619 5621 5622 5624 5626 5628 5630 5631 5632 5634 5635 5636 5636 5637 5637 5638 5637 5636 5635 5635 5634 5634 5634 5634 5634 5634 5634 5634 5634 5634 5634 5634 5634 5633 5632 5631 5630 5629 5628 5628 5628 5627 5627
5611 5612 5614 5616 5618 5620 5621 5622 5623 5625 5626 5627 5627 5628 5628 5628 5628 5628 5627 5626 5625 5626 5626 5626 5626 5626 5626 5626 5626 5626 5626 5626 5626 5625 5625 5624 5623 5622 5621 5620 5619 5619 5619
5603 5604 5606 5607 5609 5610 5612 5613 5614 5615 5617 5618 5619 5619 5619 5619 5619 5619 5618 5617 5617 5617 5617 5617 5617 5618 5618 5617 5618 5618 5618 5618 5618 5617 5617 5616 5616 5615 5614 5613 5612 5611 5610
5595 5596 5598 5599 5600 5601 5602 5603 5604 5606 5607 5609 5610 5610 5610 5610 5610 5610 5610 5609 5608 5608 5608 5608 5608 5608 5608 5608 5609 5609 5609 5610 5609 5609 5609 5608 5608 5607 5606 5605 5604 5603 5601
5587 5588 5590 5590 5592 5592 5594 5595 5597 5598 5599 5600 5601 5601 5601 5601 5602 5601 5601 5601 5600 5600 5599 5599 5598 5598 5599 5598 5600 5601 5602 5602 5602 5601 5601 5600 5600 5599 5597 5596 5595 5594 5593
5578 5579 5580 5581 5583 5584 5585 5586 5587 5588 5589 5590 5591 5592 5591 5591 5591 5591 5591 5591 5590 5590 5589 5588 5588 5589 5589 5589 5590 5592 5595 5596 5595 5593 5592 5591 5591 5590 5588 5587 5586 5584 5583
5567 5569 5570 5571 5573 5574 5575 5575 5576 5577 5578 5579 5581 5582 5582 5581 5581 5580 5580 5581 5580 5581 5580 5580 5579 5579 5580 5579 5579 5581 5585 5590 5588 5586 5584 5582 5580 5579 5579 5577 5576 5575 5573
5557 5558 5560 5561 5563 5564 5565 5566 5568 5570 5572 5573 5571 5572 5572 5571 5571 5570 5570 5570 5570 5570 5570 5570 5570 5570 5570 5570 5570 5569 5570 5572 5573 5576 5576 5572 5570 5568 5567 5567 5566 5564 5563
5546 5547 5549 5551 5552 5554 5555 5556 5559 5560 5562 5561 5560 5561 5561 5561 5561 5560 5560 5560 5560 5560 5560 5560 5560 5560 5560 5561 5560 5559 5558 5557 5559 5562 5566 5565 5561 5559 5558 5556 5555 5554 5552
5535 5536 5538 5540 5542 5543 5544 5545 5547 5550 5550 5551 5550 5551 5550 5551 5551 5550 5549 5549 5549 5549 5549 5549 5549 5550 5550 5549 5549 5549 5548 5549 5549 5549 5551 5552 5551 5550 5548 5546 5545 5543 5542